User: anonymous   Login
Location: Arnolds Mill
(42.3415°N, 73.5951°W)
Time: 11:31:37
(UTC+00:00)
Language:

BlueWalker 3 - Orbit

View from above orbital plane
View from above orbital plane
View from above satellite
View from above satellite

Ground track
Ground track

The orbit data is extracted from the following two-line orbital elements,

1 53807U 22111AL  24195.91168942  .00007893  00000-0  31016-3 0  9992
2 53807  53.2386  70.4305 0008631 163.9720 196.1555 15.26590982102313
Epoch (UTC): 13 July 2024 21:52:49
Eccentricity: 0.0008631
inclination: 53.2386°
perigee height: 480 km
apogee height: 492 km
right ascension of ascending node: 70.4305°
argument of perigee: 163.9720°
revolutions per day: 15.26590982
mean anomaly at epoch: 196.1555°
orbit number at epoch: 10231

The dashed part of the orbit path shows where the satellite is in the earth's shadow,  

DLR